User: anonymous
Location: Ostrava
(49.8330°N, 18.2830°E)
Time: 12:43:37
(UTC+02:00)
Language:

Cosmos 1766 - Orbit

View from above orbital plane
View from above orbital plane
View from above satellite
View from above satellite

Ground track
Ground track

The orbit data is extracted from the following two-line orbital elements,

1 16881U 86055A   14231.05248062  .00000868  00000-0  57870-4 0  9360
2 16881 082.5128 311.9687 0011741 010.5253 349.6218 15.05800183525665
Epoch (UTC): 19 August 2014 01:15:34
Eccentricity: 0.0011741
inclination: 82.5128°
perigee height: 541 km
apogee height: 557 km
right ascension of ascending node: 311.9687°
argument of perigee: 10.5253°
revolutions per day: 15.05800183
mean anomaly at epoch: 349.6218°
orbit number at epoch: 52566

The dashed part of the orbit path shows where the satellite is in the earth's shadow,  

DLR